Regional Weather Roundup
Issued by NWS

Home | Current Version | Previous Version | Graphics & Text | Print | Product List | Glossary On
Versions: 1 2 3 4 5 6 7 8 9 10 11 12 13 14 15 16 17 18 19 20 21 22 23 24 25 26 27 28 29 30 31 32 33 34 35 36 37 38 39 40 41 42 43 44 45 46 47 48 49
000
ASUS43 KDMX 201307
RWRIA

WEATHER ROUNDUP FOR IOWA
NATIONAL WEATHER SERVICE DES MOINES IA
800 AM CDT SAT SEP 20 2014

NOTE: "FAIR" INDICATES FEW OR NO CLOUDS BELOW 12,000 FEET WITH NO
SIGNIFICANT WEATHER AND/OR OBSTRUCTIONS TO VISIBILITY.

* - THESE STATIONS ARE NOT NWS STATIONS...THUS NOT UNDER NWS
QUALITY CONTROL.  THEY ALSO DO NOT REPORT WEATHER SUCH
AS PRECIPITATION OR FOG.

IAZ001>003-012>014-020>022-031>034-043>046-201400-
   NORTHWEST IOWA

CITY           SKY/WX    TMP DP  RH WIND       PRES   REMARKS
CARROLL *      PTCLDY    68  66  94 SW8       29.88S
CHEROKEE *     LGT RAIN  64  64 100 CALM      29.89R
DENISON *      CLOUDY    66  66 100 W6        29.88R FOG
LE MARS *      CLOUDY    64  61  88 CALM      29.90R
ORANGE CITY *  LGT RAIN  64  59  82 N5        29.89F
SHELDON *      DRIZZLE   61  61 100 CALM      29.87F
SIOUX CITY     MOCLDY    63  62  97 NW3       29.89R
SPENCER        LGT RAIN  65  61  87 NW7       29.89R
STORM LAKE *   CLOUDY    64  64 100 W7        29.89R
$$

IAZ055>058-069>071-079>083-090>094-201400-
   SOUTHWEST IOWA

CITY           SKY/WX    TMP DP  RH WIND       PRES   REMARKS
ATLANTIC *     MOCLDY    68  66  94 S7        29.89R
AUDUBON *      PTCLDY    68  63  83 S5        29.90F
CLARINDA *     MOCLDY    68  68 100 CALM      29.93R FOG
COUNCIL BLFS * PTCLDY    68  66  94 SW13G21   29.90S
CRESTON *      DRIZZLE   68  68 100 N7G15     29.93F
HARLAN  *      CLEAR     68  68 100 SW9       29.93R FOG
LAMONI         CLOUDY    67  66  97 E5        29.94F FOG
RED OAK *      CLOUDY    68  66  94 SW7       29.92R
SHENANDOAH *   MOCLDY    68  68 100 SW12      29.93R FOG
$$

IAZ047>049-059>061-072>074-084-201400-
   CENTRAL IOWA

CITY           SKY/WX    TMP DP  RH WIND       PRES   REMARKS
AMES           CLOUDY    66  63  90 SW9       29.87S
ANKENY *       SUNNY     68  63  83 SW6       29.86F
CHARITON *     MOSUNNY   68  66  94 SW6       29.94F FOG
DES MOINES     LGT RAIN  68  64  87 S9        29.86F
GRINNELL*      CLOUDY    66  64  94 S5        29.88R FOG
KNOXVILLE *    CLOUDY    68  66  94 S13       29.87F FOG
MARSHALLTOWN   CLOUDY    67  63  87 SW8       29.85F
PELLA *        LGT RAIN  68  66  94 S8        29.87F
PERRY *        MOCLDY    66  63  88 SW10G20   29.87R
$$

IAZ004>006-015-016-023>025-035-036-201400-
   NORTH CENTRAL IOWA

CITY           SKY/WX    TMP DP  RH WIND       PRES   REMARKS
ALGONA *       CLOUDY    64  64 100 SW8       29.87R
CLARION *        N/A     64  64 100 SW8       29.86S
ESTHERVILLE    CLOUDY    64  61  90 W6        29.86R
FORT DODGE *   CLOUDY    64  63  94 SW7       29.88S
MASON CITY     LGT RAIN  65  63  93 W14       29.86R
FOREST CITY *  LGT RAIN  64  64 100 W6        29.86R
IOWA FALLS *   LGT RAIN  66  63  88 SW10      29.87S
$$

IAZ007>011-017>019-026>030-037>042-050>054-066-201400-
   NORTHEAST IOWA

CITY           SKY/WX    TMP DP  RH WIND       PRES   REMARKS
CEDAR RAPIDS   CLOUDY    66  65  96 W8        29.86S FOG
CHARLES CITY * SUNNY     64  63  94 W8G17     29.84R
CLINTON *      CLOUDY    63  61  94 S12       29.87F
DECORAH *      SUNNY     64  63  94 VRB7      29.80R
DUBUQUE        CLOUDY    64  63  96 SW12      29.84R FOG
MONTICELLO *   SUNNY     64  64 100 SW6       29.83R FOG
OELWEIN *      PTSUNNY   64  63  94 SW8       29.84R
WATERLOO       CLOUDY    67  62  84 SW13      29.83R
$$

IAZ064-065-067-068-078-201400-
   EAST CENTRAL IOWA

CITY           SKY/WX    TMP DP  RH WIND       PRES   REMARKS
DAVENPORT      CLOUDY    64  61  90 S12       29.88F FOG
IOWA CITY      CLOUDY    66  64  93 S14       29.85F
MT. PLEASANT * CLOUDY    64  63  94 S6        29.94S FOG
MUSCATINE *    SUNNY     64  63  94 S8        29.90F
QUAD CITIES    CLOUDY    64  61  90 SW10      29.89F FOG
$$

IAZ062-063-075>077-085>089-095>099-201400-
   SOUTHEAST IOWA

CITY           SKY/WX    TMP DP  RH WIND       PRES   REMARKS
BURLINGTON     PTSUNNY   64  62  93 SW9       29.94F FOG
FAIRFIELD *    PTSUNNY   64  63  94 S6        29.93S
FORT MADISON * PTSUNNY   66  63  88 S8        29.96S
KEOKUK *       MOSUNNY   64  63  94 SW10      29.96S
OSKALOOSA *      N/A     66  64  94 SW7       29.92F FOG
CENTERVILLE *  SUNNY     66  66 100 S6        29.96F
OTTUMWA        CLOUDY    66  64  93 SW7       29.93S
WASHINGTON *   PTSUNNY   64  64 100 S10       29.91F FOG
$$

ABBREVIATIONS USED IN REMARKS
   TC - TEMPERATURES IN CELSIUS
  WCI - WIND CHILL INDEX
   HX - HEAT INDEX
  VSB - VISIBILITY
$$




USA.gov is the U.S. government's official web portal to all federal, state and local government web resources and services.